This demonstration page uses our WeatherBlox Daily Observations layout. Learn more.

41.86663, -103.66717

Hourly Observations for June 4, 2019

Temp ( °F °C ) Dew Point ( °F °C ) Humidity (%) Winds ( mph kmh ) Pressure ( in mb ) Visibility ( mi km ) Precip ( " mm )
12:53 am 00:53 Clear 55 12.8 49 9.4 80 80 W 7 11 29.8 1009 10 16.0934 0 0
1:53 am 01:53 Clear 55 12.8 49 9.4 80 80 NW 12 19 29.8 1009 10 16.0934 0 0
2:53 am 02:53 Clear 50 10 47 8.3 89 89 ENE 7 11 29.82 1010 10 16.0934 0 0
3:53 am 03:53 Clear 50 10 47 8.3 89 89 NNW 6 9 29.8 1009 10 16.0934 0 0
4:53 am 04:53 Clear 49 9.4 46 7.8 90 90 undefined N/A 29.81 1010 10 16.0934 0 0
5:53 am 05:53 Sunny 50 10 47 8.3 89 89 NW 6 9 29.83 1010 10 16.0934 0 0
6:53 am 06:53 Sunny 56 13.3 51 10.6 84 84 WNW 5 7 29.85 1011 10 16.0934 0 0
7:53 am 07:53 Sunny 62 16.7 51 10.6 67 67 WNW 8 13 29.84 1011 10 16.0934 0 0
8:53 am 08:53 Sunny 69 20.6 52 11.1 55 55 WNW 13 20 29.84 1011 10 16.0934 0 0
9:53 am 09:53 Sunny 74 23.3 54 12.2 50 50 WNW 15 24 29.85 1011 10 16.0934 0 0
10:53 am 10:53 Sunny 78 25.6 57 13.9 48 48 WNW 13 20 29.84 1010 10 16.0934 0 0
11:53 am 11:53 Sunny 80 26.7 57 13.9 45 45 NW 12 19 29.84 1011 10 16.0934 0 0
12:53 pm 12:53 Mostly Sunny 81 27.2 58 14.4 45 45 NW 12 19 29.84 1011 10 16.0934 0 0
1:53 pm 13:53 Partly Cloudy 81 27.2 57 13.9 44 44 NW 9 15 29.83 1010 10 16.0934 0 0
2:53 pm 14:53 Mostly Cloudy 80 26.7 57 13.9 45 45 NNW 10 17 29.82 1010 10 16.0934 0 0
3:01 pm 15:01 Mostly Cloudy with Nearby Thunderstorms 78 25.6 54 12.2 43 43 NNW 15 24 29.68 1005 10 16.0934 0 0
3:16 pm 15:16 Partly Cloudy 79 26.1 55 12.8 44 44 NNW 21 33 29.66 1004 10 16.0934 0 0
3:29 pm 15:29 Partly Cloudy with Nearby Thunderstorms 76 24.4 53 11.7 45 45 N 15 24 29.69 1005 10 16.0934 0 0
3:53 pm 15:53 Mostly Cloudy with Light Thunderstorms 64 17.8 53 11.7 68 68 W 16 26 29.9 1012 6 9.65604 0.01 0.254
4:22 pm 16:22 Mostly Cloudy with Nearby Thunderstorms 63 17 55 13 77 77 N 14 22 29.82 1010 10 16.0934 0 0
4:43 pm 16:43 Partly Cloudy 63 17 55 13 77 77 WNW 10 17 29.82 1010 10 16.0934 0 0
4:53 pm 16:53 Mostly Sunny 64 17.8 54 12.2 70 70 NW 16 26 29.91 1013 10 16.0934 0.09 2.286
5:13 pm 17:13 Sunny 64 18 54 12 68 68 N 16 26 29.82 1010 10 16.0934 0 0
5:53 pm 17:53 Mostly Cloudy with Light Rain 62 16.7 53 11.7 73 73 NNE 22 35 29.92 1013 10 16.0934 0 0.0254
6:53 pm 18:53 Sunny 65 18.3 50 10 59 59 NW 12 19 29.9 1012 10 16.0934 0 0.0254
7:53 pm 19:53 Sunny 62 16.7 52 11.1 70 70 WNW 7 11 29.89 1012 10 16.0934 0 0
8:53 pm 20:53 Clear 60 15.6 53 11.7 78 78 WSW 5 7 29.88 1012 10 16.0934 0 0
9:53 pm 21:53 Clear 56 13.3 53 11.7 90 90 NW 8 13 29.91 1013 10 16.0934 0 0
10:53 pm 22:53 Clear 54 12.2 51 10.6 90 90 NW 6 9 29.93 1013 10 16.0934 0 0
11:53 pm 23:53 Clear 55 12.8 52 11.1 90 90 NNW 9 15 29.91 1013 10 16.0934 0 0

Powered by AerisWeather